| time (UTC) | temp C | wind direction | speed KPH | gust KPH | rain 1hr cm | rain 24hr cm | rain mn cm | humidity % | barometer mb |
| 20260504130806 | 15 | 285 | 4.8 | 9.7 | 0.00 | 0.00 | 0.00 | 63 | 1011.7 |
| 20260504130302 | 14 | 225 | 3.2 | 29.0 | 0.00 | 0.00 | 0.00 | 62 | 1011.7 |
| 20260504120226 | 13 | 256 | 4.8 | 14.5 | 0.00 | 0.00 | 0.00 | 63 | 1011.6 |
| 20260504110653 | 9 | 26 | 0.0 | 4.8 | 0.00 | 0.00 | 0.00 | 76 | 1011.4 |
| 20260504110149 | 8 | 237 | 0.0 | 3.2 | 0.00 | 0.00 | 0.00 | 76 | 1011.5 |
| 20260504100615 | 6 | 146 | 4.8 | 4.8 | 0.00 | 0.00 | 0.00 | 92 | 1011.9 |
| 20260504100114 | 6 | 90 | 0.0 | 4.8 | 0.00 | 0.00 | 0.00 | 92 | 1012.0 |
| 20260504081506 | 7 | 199 | 0.0 | 4.8 | 0.00 | 0.00 | 0.00 | 93 | 1012.5 |
| 20260504081002 | 7 | 172 | 3.2 | 3.2 | 0.00 | 0.00 | 0.00 | 92 | 1012.7 |
| 20260504080458 | 7 | 203 | 1.6 | 1.6 | 0.00 | 0.00 | 0.00 | 92 | 1012.5 |
| 20260504050311 | 11 | 197 | 3.2 | 4.8 | 0.00 | 0.00 | 0.00 | 73 | 1014.0 |
| 20260504045808 | 11 | 105 | 3.2 | 4.8 | 0.00 | 0.00 | 0.00 | 69 | 1014.3 |
| 20260504045304 | 11 | 147 | 3.2 | 4.8 | 0.00 | 0.00 | 0.00 | 68 | 1014.1 |
| 20260504044800 | 12 | 265 | 0.0 | 6.4 | 0.00 | 0.00 | 0.00 | 67 | 1014.4 |
| 20260504044258 | 11 | 256 | 8.0 | 12.9 | 0.00 | 0.00 | 0.00 | 66 | 1014.4 |
| 20260504043755 | 11 | 167 | 4.8 | 8.0 | 0.00 | 0.00 | 0.00 | 69 | 1014.4 |
| 20260504043251 | 10 | 209 | 4.8 | 4.8 | 0.00 | 0.00 | 0.00 | 83 | 1014.4 |
| 20260504042749 | 9 | 68 | 0.0 | 3.2 | 0.00 | 0.00 | 0.00 | 83 | 1014.1 |
| 20260504042245 | 9 | 270 | 0.0 | 3.2 | 0.00 | 0.00 | 0.00 | 83 | 1014.1 |
| 20260504041742 | 9 | 234 | 0.0 | 4.8 | 0.00 | 0.00 | 0.00 | 81 | 1013.8 |
| 20260504041238 | 9 | 160 | 0.0 | 4.8 | 0.00 | 0.00 | 0.00 | 81 | 1014.2 |
| 20260504040734 | 9 | 162 | 0.0 | 3.2 | 0.00 | 0.00 | 0.00 | 81 | 1014.2 |
| 20260504040232 | 9 | 117 | 0.0 | 4.8 | 0.00 | 0.00 | 0.00 | 81 | 1014.1 |
| 20260504035727 | 9 | 160 | 0.0 | 3.2 | 0.00 | 0.00 | 0.00 | 82 | 1014.2 |
| 20260504035225 | 9 | 101 | 3.2 | 4.8 | 0.00 | 0.00 | 0.00 | 80 | 1014.0 |
| 20260504034722 | 9 | 162 | 1.6 | 6.4 | 0.00 | 0.00 | 0.00 | 80 | 1014.2 |
| 20260504034219 | 9 | 152 | 3.2 | 3.2 | 0.00 | 0.00 | 0.00 | 81 | 1014.3 |
| 20260504033717 | 9 | 250 | 0.0 | 4.8 | 0.00 | 0.00 | 0.00 | 80 | 1014.0 |
| 20260504033214 | 9 | 279 | 0.0 | 4.8 | 0.00 | 0.00 | 0.00 | 79 | 1014.1 |
| 20260504032711 | 9 | 243 | 0.0 | 3.2 | 0.00 | 0.00 | 0.00 | 78 | 1014.2 |
| 20260504032208 | 9 | 166 | 0.0 | 6.4 | 0.00 | 0.00 | 0.00 | 79 | 1014.3 |
| 20260504031705 | 10 | 209 | 3.2 | 4.8 | 0.00 | 0.00 | 0.00 | 80 | 1014.2 |
| 20260504031202 | 9 | 185 | 0.0 | 3.2 | 0.00 | 0.00 | 0.00 | 80 | 1014.4 |
| 20260504030658 | 9 | 117 | 1.6 | 3.2 | 0.00 | 0.00 | 0.00 | 79 | 1014.1 |
| 20260504030155 | 10 | 163 | 4.8 | 4.8 | 0.00 | 0.00 | 0.00 | 79 | 1014.2 |
| 20260504025652 | 10 | 69 | 0.0 | 3.2 | 0.00 | 0.00 | 0.00 | 77 | 1014.2 |
| 20260504025148 | 10 | 15 | 0.0 | 1.6 | 0.00 | 0.00 | 0.00 | 78 | 1014.1 |
| 20260504024646 | 10 | 162 | 1.6 | 4.8 | 0.00 | 0.00 | 0.00 | 78 | 1014.2 |
| 20260504024142 | 10 | 294 | 0.0 | 1.6 | 0.00 | 0.00 | 0.00 | 77 | 1014.3 |
| 20260504023639 | 10 | 0 | 1.6 | 3.2 | 0.00 | 0.00 | 0.00 | 72 | 1014.2 |
| 20260504023135 | 10 | 188 | 0.0 | 3.2 | 0.00 | 0.00 | 0.00 | 77 | 1014.2 |
| 20260504022632 | 10 | 74 | 0.0 | 3.2 | 0.00 | 0.00 | 0.00 | 75 | 1014.4 |
| 20260504022127 | 10 | 200 | 4.8 | 4.8 | 0.00 | 0.00 | 0.00 | 74 | 1014.3 |
| 20260504021626 | 10 | 225 | 0.0 | 3.2 | 0.00 | 0.00 | 0.00 | 75 | 1014.3 |
| 20260504021122 | 10 | 165 | 0.0 | 3.2 | 0.00 | 0.00 | 0.00 | 73 | 1014.1 |
| 20260504020619 | 10 | 203 | 1.6 | 3.2 | 0.00 | 0.00 | 0.00 | 74 | 1013.9 |
| 20260504020115 | 10 | 270 | 0.0 | 3.2 | 0.00 | 0.00 | 0.00 | 72 | 1013.9 |
| 20260504015612 | 10 | 261 | 0.0 | 1.6 | 0.00 | 0.00 | 0.00 | 72 | 1013.9 |
| 20260504015108 | 10 | 289 | 0.0 | 3.2 | 0.00 | 0.00 | 0.00 | 72 | 1013.6 |
| 20260504014604 | 11 | 276 | 1.6 | 4.8 | 0.00 | 0.00 | 0.00 | 70 | 1013.7 |
| 20260504014102 | 11 | 270 | 1.6 | 3.2 | 0.00 | 0.00 | 0.00 | 67 | 1013.8 |
| 20260504013559 | 11 | 237 | 0.0 | 3.2 | 0.00 | 0.00 | 0.00 | 66 | 1013.9 |
| 20260504013056 | 11 | 220 | 3.2 | 4.8 | 0.00 | 0.00 | 0.00 | 67 | 1013.6 |
| 20260504012553 | 11 | 294 | 0.0 | 3.2 | 0.00 | 0.00 | 0.00 | 67 | 1013.6 |
| 20260504012051 | 11 | 254 | 0.0 | 4.8 | 0.00 | 0.00 | 0.00 | 67 | 1013.7 |
| 20260504011547 | 11 | 270 | 4.8 | 4.8 | 0.00 | 0.00 | 0.00 | 66 | 1013.6 |
| 20260504011043 | 11 | 270 | 3.2 | 4.8 | 0.00 | 0.00 | 0.00 | 64 | 1014.0 |
| 20260504010539 | 11 | 120 | 1.6 | 4.8 | 0.00 | 0.00 | 0.00 | 68 | 1014.1 |
| 20260504010036 | 11 | 165 | 0.0 | 3.2 | 0.00 | 0.00 | 0.00 | 64 | 1014.2 |
| 20260504005532 | 12 | 180 | 0.0 | 3.2 | 0.00 | 0.00 | 0.00 | 64 | 1014.4 |
| 20260504005030 | 11 | 206 | 1.6 | 3.2 | 0.00 | 0.00 | 0.00 | 62 | 1014.3 |
| 20260504004528 | 12 | 180 | 0.0 | 3.2 | 0.00 | 0.00 | 0.00 | 64 | 1014.2 |
| 20260504004024 | 12 | 270 | 0.0 | 3.2 | 0.00 | 0.00 | 0.00 | 61 | 1014.0 |
| 20260504003520 | 12 | 168 | 0.0 | 3.2 | 0.00 | 0.00 | 0.00 | 59 | 1014.0 |
| 20260504003018 | 12 | 164 | 0.0 | 3.2 | 0.00 | 0.00 | 0.00 | 58 | 1014.0 |
| 20260504002514 | 12 | 180 | 0.0 | 4.8 | 0.00 | 0.00 | 0.00 | 58 | 1014.0 |
| 20260504002012 | 13 | 168 | 0.0 | 3.2 | 0.00 | 0.00 | 0.00 | 55 | 1014.0 |
| 20260504001509 | 13 | 180 | 1.6 | 3.2 | 0.00 | 0.00 | 0.00 | 52 | 1013.8 |
| 20260504001005 | 13 | 225 | 3.2 | 3.2 | 0.00 | 0.00 | 0.00 | 53 | 1014.0 |
| 20260504000503 | 13 | 258 | 0.0 | 4.8 | 0.00 | 0.00 | 0.00 | 55 | 1014.1 |
| 20260504000000 | 13 | 300 | 3.2 | 3.2 | 0.00 | 0.00 | 0.00 | 50 | 1014.0 |
| 20260503235458 | 14 | 173 | 0.0 | 4.8 | 0.00 | 0.00 | 0.00 | 46 | 1013.8 |
| 20260503234955 | 14 | 203 | 0.0 | 4.8 | 0.00 | 0.00 | 0.00 | 49 | 1014.0 |
| 20260503234452 | 15 | 278 | 0.0 | 3.2 | 0.00 | 0.00 | 0.00 | 45 | 1013.9 |
| 20260503233950 | 15 | 251 | 0.0 | 8.0 | 0.00 | 0.00 | 0.00 | 43 | 1014.1 |
| 20260503233446 | 15 | 240 | 0.0 | 1.6 | 0.00 | 0.00 | 0.00 | 42 | 1013.9 |
| 20260503232943 | 15 | 270 | 3.2 | 6.4 | 0.00 | 0.00 | 0.00 | 41 | 1013.8 |
| 20260503232440 | 15 | 246 | 0.0 | 6.4 | 0.00 | 0.00 | 0.00 | 42 | 1013.9 |
| 20260503231938 | 15 | 172 | 0.0 | 4.8 | 0.00 | 0.00 | 0.00 | 42 | 1014.2 |
| 20260503231435 | 15 | 245 | 4.8 | 16.1 | 0.00 | 0.00 | 0.00 | 40 | 1014.2 |
| 20260503230931 | 16 | 230 | 4.8 | 9.7 | 0.00 | 0.00 | 0.00 | 40 | 1014.1 |
| 20260503230428 | 16 | 270 | 0.0 | 8.0 | 0.00 | 0.00 | 0.00 | 41 | 1014.2 |
| 20260503225926 | 16 | 247 | 8.0 | 11.3 | 0.00 | 0.00 | 0.00 | 39 | 1014.5 |
| 20260503225422 | 16 | 248 | 4.8 | 6.4 | 0.00 | 0.00 | 0.00 | 40 | 1014.5 |
| 20260503224918 | 16 | 345 | 0.0 | 4.8 | 0.00 | 0.00 | 0.00 | 43 | 1014.5 |
| 20260503224415 | 16 | 212 | 3.2 | 6.4 | 0.00 | 0.00 | 0.00 | 40 | 1014.4 |
| 20260503223913 | 16 | 253 | 4.8 | 9.7 | 0.00 | 0.00 | 0.00 | 39 | 1014.6 |
| 20260503223411 | 16 | 257 | 6.4 | 14.5 | 0.00 | 0.00 | 0.00 | 39 | 1014.7 |
| 20260503222910 | 16 | 246 | 3.2 | 8.0 | 0.00 | 0.00 | 0.00 | 41 | 1014.9 |
| 20260503222409 | 16 | 242 | 8.0 | 14.5 | 0.00 | 0.00 | 0.00 | 38 | 1014.8 |
| 20260503221907 | 16 | 246 | 4.8 | 8.0 | 0.00 | 0.00 | 0.00 | 39 | 1014.8 |
| 20260503221406 | 16 | 261 | 3.2 | 9.7 | 0.00 | 0.00 | 0.00 | 37 | 1014.9 |
| 20260503220901 | 16 | 252 | 11.3 | 11.3 | 0.00 | 0.00 | 0.00 | 38 | 1014.9 |
| 20260503220358 | 16 | 285 | 0.0 | 9.7 | 0.00 | 0.00 | 0.00 | 40 | 1014.7 |
| 20260503215855 | 16 | 291 | 0.0 | 14.5 | 0.00 | 0.00 | 0.00 | 40 | 1014.8 |
| 20260503215352 | 16 | 133 | 0.0 | 4.8 | 0.00 | 0.00 | 0.00 | 41 | 1014.8 |
| 20260503214849 | 16 | 241 | 9.7 | 12.9 | 0.00 | 0.00 | 0.00 | 37 | 1014.9 |
| 20260503214347 | 16 | 262 | 6.4 | 25.7 | 0.00 | 0.00 | 0.00 | 36 | 1014.7 |
| 20260503213844 | 17 | 180 | 0.0 | 16.1 | 0.00 | 0.00 | 0.00 | 40 | 1014.9 |
| 20260503213342 | 18 | 206 | 4.8 | 8.0 | 0.00 | 0.00 | 0.00 | 36 | 1014.7 |
| 20260503212839 | 17 | 245 | 9.7 | 25.7 | 0.00 | 0.00 | 0.00 | 36 | 1014.7 |
| 20260503212336 | 18 | 139 | 3.2 | 14.5 | 0.00 | 0.00 | 0.00 | 43 | 1014.9 |
| 20260503211833 | 17 | 307 | 0.0 | 16.1 | 0.00 | 0.00 | 0.00 | 38 | 1014.9 |
| 20260503211330 | 17 | 243 | 16.1 | 24.1 | 0.00 | 0.00 | 0.00 | 38 | 1014.9 |
| 20260503210825 | 17 | 83 | 0.0 | 14.5 | 0.00 | 0.00 | 0.00 | 40 | 1015.0 |
| 20260503210323 | 17 | 280 | 6.4 | 27.4 | 0.00 | 0.00 | 0.00 | 39 | 1014.9 |
| 20260503205818 | 17 | 259 | 9.7 | 25.7 | 0.00 | 0.00 | 0.00 | 35 | 1015.0 |
| 20260503205315 | 17 | 80 | 0.0 | 6.4 | 0.00 | 0.00 | 0.00 | 38 | 1014.8 |
| 20260503204811 | 17 | 213 | 3.2 | 17.7 | 0.00 | 0.00 | 0.00 | 35 | 1014.7 |
| 20260503204309 | 16 | 270 | 4.8 | 24.1 | 0.00 | 0.00 | 0.00 | 36 | 1014.9 |
| 20260503203806 | 17 | 227 | 9.7 | 11.3 | 0.00 | 0.00 | 0.00 | 34 | 1014.9 |
| 20260503203303 | 18 | 196 | 0.0 | 8.0 | 0.00 | 0.00 | 0.00 | 39 | 1015.0 |
| 20260503202800 | 18 | 47 | 4.8 | 6.4 | 0.00 | 0.00 | 0.00 | 36 | 1015.1 |
| 20260503202258 | 17 | 304 | 3.2 | 12.9 | 0.00 | 0.00 | 0.00 | 42 | 1015.4 |
| 20260503201755 | 16 | 315 | 3.2 | 22.5 | 0.00 | 0.00 | 0.00 | 42 | 1015.5 |
| 20260503201253 | 16 | 254 | 9.7 | 25.7 | 0.00 | 0.00 | 0.00 | 39 | 1015.5 |
| 20260503200750 | 16 | 311 | 0.0 | 17.7 | 0.00 | 0.00 | 0.00 | 38 | 1015.4 |
| 20260503200246 | 17 | 281 | 9.7 | 9.7 | 0.00 | 0.00 | 0.00 | 37 | 1015.4 |
| 20260503195743 | 17 | 69 | 0.0 | 6.4 | 0.00 | 0.00 | 0.00 | 39 | 1015.8 |
| 20260503195239 | 17 | 109 | 0.0 | 9.7 | 0.00 | 0.00 | 0.00 | 36 | 1015.9 |
| 20260503194738 | 17 | 345 | 1.6 | 11.3 | 0.00 | 0.00 | 0.00 | 40 | 1016.2 |
| 20260503194233 | 16 | 266 | 8.0 | 11.3 | 0.00 | 0.00 | 0.00 | 37 | 1016.2 |
| 20260503193729 | 17 | 341 | 3.2 | 6.4 | 0.00 | 0.00 | 0.00 | 38 | 1016.1 |
| 20260503193225 | 17 | 222 | 14.5 | 14.5 | 0.00 | 0.00 | 0.00 | 40 | 1016.5 |
| 20260503192721 | 17 | 352 | 0.0 | 4.8 | 0.00 | 0.00 | 0.00 | 44 | 1016.4 |
| 20260503192216 | 16 | 203 | 1.6 | 16.1 | 0.00 | 0.00 | 0.00 | 38 | 1016.5 |
| 20260503191714 | 16 | 230 | 8.0 | 22.5 | 0.00 | 0.00 | 0.00 | 39 | 1016.7 |
| 20260503191211 | 17 | 173 | 0.0 | 8.0 | 0.00 | 0.00 | 0.00 | 48 | 1016.5 |
| 20260503190707 | 16 | 236 | 6.4 | 14.5 | 0.00 | 0.00 | 0.00 | 38 | 1016.6 |
| 20260503190204 | 16 | 250 | 4.8 | 9.7 | 0.00 | 0.00 | 0.00 | 41 | 1016.8 |
| 20260503185702 | 16 | 226 | 8.0 | 16.1 | 0.00 | 0.00 | 0.00 | 37 | 1017.2 |
| 20260503185156 | 16 | 270 | 0.0 | 20.9 | 0.00 | 0.00 | 0.00 | 39 | 1016.9 |
| 20260503184651 | 16 | 278 | 1.6 | 24.1 | 0.00 | 0.00 | 0.00 | 40 | 1017.1 |
| 20260503184148 | 16 | 270 | 3.2 | 6.4 | 0.00 | 0.00 | 0.00 | 45 | 1017.3 |
| 20260503183644 | 16 | 106 | 1.6 | 9.7 | 0.00 | 0.00 | 0.00 | 41 | 1017.3 |
| 20260503183142 | 16 | 251 | 14.5 | 16.1 | 0.00 | 0.00 | 0.00 | 42 | 1017.3 |
| 20260503182640 | 16 | 57 | 3.2 | 8.0 | 0.00 | 0.00 | 0.00 | 41 | 1017.3 |
| 20260503182139 | 16 | 265 | 6.4 | 9.7 | 0.00 | 0.00 | 0.00 | 40 | 1017.4 |
| 20260503181635 | 16 | 281 | 6.4 | 9.7 | 0.00 | 0.00 | 0.00 | 44 | 1017.3 |
| 20260503181132 | 15 | 258 | 11.3 | 17.7 | 0.00 | 0.00 | 0.00 | 42 | 1017.7 |
| 20260503180629 | 16 | 236 | 14.5 | 20.9 | 0.00 | 0.00 | 0.00 | 39 | 1017.7 |
| 20260503180127 | 15 | 216 | 4.8 | 12.9 | 0.00 | 0.00 | 0.00 | 40 | 1017.9 |
| 20260503175623 | 15 | 294 | 3.2 | 11.3 | 0.00 | 0.00 | 0.00 | 45 | 1017.9 |
| 20260503175120 | 16 | 0 | 3.2 | 4.8 | 0.00 | 0.00 | 0.00 | 41 | 1017.9 |
| 20260503174617 | 14 | 241 | 4.8 | 8.0 | 0.00 | 0.00 | 0.00 | 48 | 1017.9 |
| 20260503174114 | 16 | 276 | 3.2 | 9.7 | 0.00 | 0.00 | 0.00 | 40 | 1017.8 |
| 20260503173609 | 15 | 235 | 4.8 | 8.0 | 0.00 | 0.00 | 0.00 | 43 | 1017.9 |
| 20260503173106 | 14 | 234 | 8.0 | 9.7 | 0.00 | 0.00 | 0.00 | 44 | 1018.0 |
| 20260503172603 | 15 | 258 | 4.8 | 8.0 | 0.00 | 0.00 | 0.00 | 39 | 1018.2 |
| 20260503172100 | 16 | 294 | 4.8 | 9.7 | 0.00 | 0.00 | 0.00 | 45 | 1018.2 |
| 20260503171556 | 16 | 139 | 4.8 | 4.8 | 0.00 | 0.00 | 0.00 | 47 | 1018.3 |
| 20260503171054 | 15 | 304 | 4.8 | 4.8 | 0.00 | 0.00 | 0.00 | 46 | 1018.5 |
| 20260503170550 | 14 | 258 | 0.0 | 9.7 | 0.00 | 0.00 | 0.00 | 43 | 1018.5 |
| 20260503150943 | 12 | 233 | 3.2 | 8.0 | 0.00 | 0.00 | 0.00 | 48 | 1019.7 |
| 20260503150439 | 12 | 294 | 1.6 | 11.3 | 0.00 | 0.00 | 0.00 | 50 | 1019.8 |